{"data":{"norad_id":43778,"intl_designator":"2018-099W","name":"SPAWAR-CAL-OR","alt_names":[],"object_type":"PAYLOAD","status":"ACTIVE","operator":null,"country":"US","launch_date":"2018-12-03","launch_site_code":"AFWTR","launch_vehicle":null,"mission":null,"orbit_class":"UNKNOWN","rcs_meters":null,"size_class":null,"mass_kg":null,"dimensions":null,"purposes":[],"wikipedia_slug":null,"has_3d_model":false,"image_url":null,"decayed_at":null,"tle_current":{"epoch":"2026-05-25T01:27:38.520864Z","epoch_age_seconds":80160,"freshness":"FRESH","line1":"1 43778U 18099W   26145.06086251  .00008602  00000+0  36930-3 0  9991","line2":"2 43778  97.3812 193.6965 0012487  45.9705 314.2559 15.22872121409139","mean_motion":15.22872121,"eccentricity":0.0012487,"inclination_deg":97.3812,"raan_deg":193.6965,"arg_perigee_deg":45.9705,"mean_anomaly_deg":314.2559,"bstar":0.0003693,"rev_number":40913,"period_min":94.558169405217,"perigee_km":488.59727250748,"apogee_km":505.76769538669,"semimajor_km":6875.3194839471,"source":"CELESTRAK","updated_at":"2026-05-25T13:37:55.895382Z"}}}